Weather in Romanovo

Russia / Lipetsk Oblast     53°08′05″N   39°09′44″E
temp.,
°C
wind,
m/s
gust,
m/s
humid.,
%
clouds,
%
prec.,
mm/h
press.,
hPa
HPBL,
m
15 may, sat
sat1500:00+16se229197 2.2 101118
03:00+16sse399344 2.2 1010190
06:00+16s4897100 1.2 1009226
09:00+21ssw6980100 2.3 1010535
12:00+22ssw5764100 0.1 10111166
15:00+23ssw69552 0.1 10111683
18:00+20ssw6106644 0.1 1012764
21:00+16ssw498230 0.1 1013179
16 may, sun
sun1600:00+14ssw36840 0.0 1013106
03:00+13ssw35877 0.0 101482
06:00+13ssw25865 0.0 1015125
09:00+19ssw35665 0.0 1015483
12:00+22ssw3548100 0.0 10151992
15:00+23ssw3545100 0.0 10152061
18:00+23sw126085 0.0 1014244
21:00+18ne22656 0.0 101411
17 may, mon
mon1700:00+16ene4775100 0.3 101498
03:00+15e4109092 0.9 1014204
06:00+15ene49915 0.0 1014189
09:00+20ese5869100 0.0 1013369
12:00+25se68515 0.0 1012775
15:00+26se610515 0.0 10111250
18:00+23ese713635 0.0 1010640
21:00+19ese516785 0.0 1010372
18 may, tue
tue1800:00+18se617676 0.0 1009428
03:00+16se5146743 0.0 1009291
06:00+15se5147276 0.0 1009287
09:00+20se71562100 0.0 1008594
12:00+23sse8125288 0.0 10081014
15:00+25sse7115357 0.0 10071571
18:00+22ssw586860 0.2 1007549
21:00+17s3684100 0.5 1008101
19 may, wed
wed1900:00+17sse3588100 0.4 1007122
03:00+15sse3691100 0.4 1007107
06:00+16se4119063 0.0 1006345
09:00+19sse81277100 0.6 1004954
12:00+14ssw91593100 3.9 10051061
15:00+18s8116990 5.5 10051512
18:00+15ssw9138095 1.1 10051120
21:00+11sw91488100 1.2 1008736